This is the latest recevied weather packets stored in our database for station/object K0SNA. If no packets are shown the sender has not sent any weather packets the latest 10 day(s).
| Time | Temp. | Humidity | Pressure | Rain* | Wind** | Luminosity | Snow |
|---|---|---|---|---|---|---|---|
| 1788564244 | 28.89° C | 68% | 1013.3 hPa | 0 mm | - | 26 W/m² | - |
| 1788563940 | 28.89° C | 68% | 1013.1 hPa | 0 mm | - | 28 W/m² | - |
| 1788563635 | 28.89° C | 68% | 1013.2 hPa | 0 mm | - | 31 W/m² | - |
| 1788563330 | 29.44° C | 68% | 1013.2 hPa | 0 mm | - | 77 W/m² | - |
| 1788563029 | 29.44° C | 68% | 1013 hPa | 0 mm | - | 42 W/m² | - |
| 1788562724 | 29.44° C | 69% | 1013.1 hPa | 0 mm | - | 33 W/m² | - |
| 1788562422 | 29.44° C | 68% | 1012.9 hPa | 0 mm | - | 37 W/m² | - |
| 1788562124 | 30° C | 66% | 1013 hPa | 0 mm | - | 140 W/m² | - |
| 1788561818 | 30° C | 67% | 1012.8 hPa | 0 mm | - | 157 W/m² | - |
| 1788561517 | 30° C | 66% | 1013.1 hPa | 0 mm | - | 166 W/m² | - |
| 1788561211 | 30.56° C | 65% | 1013 hPa | 0 mm | - | 176 W/m² | - |
| 1788560908 | 30.56° C | 65% | 1012.8 hPa | 0 mm | - | 188 W/m² | - |
| 1788560608 | 30° C | 65% | 1012.8 hPa | 0 mm | - | 202 W/m² | - |
| 1788560307 | 30° C | 66% | 1012.6 hPa | 0 mm | - | 212 W/m² | - |
| 1788560002 | 30° C | 66% | 1012.8 hPa | 0 mm | - | 226 W/m² | - |
| 1788559698 | 30° C | 66% | 1012.5 hPa | 0 mm | - | 243 W/m² | - |
| 1788559397 | 30° C | 66% | 1012.7 hPa | 0 mm | - | 255 W/m² | - |
| 1788559092 | 30° C | 67% | 1012.5 hPa | 0 mm | - | 269 W/m² | - |
| 1788558787 | 30° C | 67% | 1012.3 hPa | 0 mm | - | 281 W/m² | - |
| 1788558483 | 30° C | 66% | 1012.5 hPa | 0 mm | - | 296 W/m² | - |
| 1788558179 | 30.56° C | 66% | 1012.5 hPa | 0 mm | - | 305 W/m² | - |
| 1788557876 | 30.56° C | 66% | 1012.5 hPa | 0 mm | - | 317 W/m² | - |
| 1788557572 | 30° C | 68% | 1012.4 hPa | 0 mm | - | 331 W/m² | - |
| 1788557268 | 30° C | 67% | 1012.5 hPa | 0 mm | - | 342 W/m² | - |
| 1788556968 | 30° C | 69% | 1012.5 hPa | 0 mm | - | 352 W/m² | - |
* Rain latest hour (hover to see other rain measurements)
** Current wind speed in m/s (hover to see current wind gust speed)